SKW3794 KGEG-KLAX

Flight info

Callsign SKW3794
Flight time 2h 9m
Altitude 35000
Route BKE FRA REBRG IRNMN2
Aircraft E75L/M-SDE3GILORVW/S

Departure

Time 2026-05-03 21:00
Airport Spokane International Airport (KGEG)

Arrival

Time 2026-05-03 23:09
Airport Los Angeles International Airport (KLAX)
Time Latitude Longitude Altitude Speed Heading
2026-05-03 20:57 47.62983 -117.52443 2366 ft 12 kts 39°
2026-05-03 20:57 47.63047 -117.52354 2367 ft 14 kts 44°
2026-05-03 20:58 47.63119 -117.52246 2367 ft 16 kts 45°
2026-05-03 20:58 47.63200 -117.52122 2367 ft 18 kts 47°
2026-05-03 20:58 47.63233 -117.52031 2367 ft 5 kts 100°
2026-05-03 20:58 47.63203 -117.51966 2367 ft 10 kts 135°
2026-05-03 20:59 47.63145 -117.51887 2367 ft 13 kts 139°
2026-05-03 20:59 47.63079 -117.51892 2367 ft 3 kts 220°
2026-05-03 20:59 47.63074 -117.51900 2368 ft 8 kts 225°
2026-05-03 20:59 47.62850 -117.52242 2368 ft 85 kts 225°
2026-05-03 21:00 47.62269 -117.53119 2372 ft 149 kts 230°
2026-05-03 21:00 47.61770 -117.53905 2709 ft 164 kts 229°
2026-05-03 21:00 47.60627 -117.55573 3580 ft 182 kts 228°
2026-05-03 21:00 47.59651 -117.56920 4222 ft 201 kts 221°
2026-05-03 21:01 47.58323 -117.57959 4843 ft 229 kts 196°
2026-05-03 21:01 47.56709 -117.58274 5721 ft 244 kts 186°
2026-05-03 21:01 47.54912 -117.58494 6351 ft 271 kts 186°
2026-05-03 21:01 47.52964 -117.58693 7123 ft 288 kts 186°
2026-05-03 21:02 47.50948 -117.58929 8130 ft 292 kts 186°
2026-05-03 21:02 47.48907 -117.59178 9180 ft 297 kts 186°
2026-05-03 21:02 47.46825 -117.59439 10155 ft 302 kts 186°
2026-05-03 21:02 47.44723 -117.59695 11128 ft 304 kts 186°
2026-05-03 21:03 47.42626 -117.59947 12089 ft 308 kts 185°
2026-05-03 21:03 47.40479 -117.60192 13068 ft 312 kts 185°
2026-05-03 21:03 47.38298 -117.60442 14054 ft 315 kts 185°
2026-05-03 21:03 47.36094 -117.60689 14975 ft 321 kts 185°
2026-05-03 21:04 47.33846 -117.60944 15905 ft 325 kts 185°
2026-05-03 21:04 47.31579 -117.61187 16822 ft 330 kts 185°
2026-05-03 21:04 47.29282 -117.61426 17731 ft 333 kts 184°
2026-05-03 21:04 47.26955 -117.61664 18532 ft 338 kts 184°
2026-05-03 21:05 47.24595 -117.61899 19295 ft 342 kts 184°
2026-05-03 21:05 47.22204 -117.62136 20062 ft 347 kts 184°
2026-05-03 21:05 47.19780 -117.62370 20818 ft 351 kts 184°
2026-05-03 21:05 47.17337 -117.62607 21546 ft 355 kts 184°
2026-05-03 21:06 47.14859 -117.62843 22265 ft 357 kts 184°
2026-05-03 21:06 47.12358 -117.63080 22884 ft 364 kts 184°
2026-05-03 21:06 47.09825 -117.63311 23577 ft 366 kts 184°
2026-05-03 21:06 47.07261 -117.63546 24111 ft 371 kts 184°
2026-05-03 21:07 47.04678 -117.63781 24694 ft 374 kts 184°
2026-05-03 21:07 47.02067 -117.64020 25271 ft 377 kts 184°
2026-05-03 21:07 46.99437 -117.64259 25828 ft 382 kts 184°
2026-05-03 21:07 46.96775 -117.64498 26407 ft 384 kts 184°
2026-05-03 21:08 46.94090 -117.64740 26946 ft 387 kts 184°
2026-05-03 21:08 46.91389 -117.64979 27481 ft 391 kts 183°
2026-05-03 21:08 46.88662 -117.65216 27988 ft 394 kts 183°
2026-05-03 21:08 46.85914 -117.65453 28485 ft 397 kts 184°
2026-05-03 21:09 46.83145 -117.65692 28993 ft 400 kts 183°
2026-05-03 21:09 46.80356 -117.65932 29483 ft 403 kts 184°
2026-05-03 21:09 46.77543 -117.66171 29973 ft 406 kts 184°
2026-05-03 21:09 46.74713 -117.66411 30385 ft 409 kts 183°
2026-05-03 21:10 46.71864 -117.66651 30794 ft 412 kts 183°
2026-05-03 21:10 46.68993 -117.66891 31153 ft 415 kts 183°
2026-05-03 21:10 46.66100 -117.67131 31512 ft 417 kts 183°
2026-05-03 21:10 46.63191 -117.67372 31864 ft 420 kts 183°
2026-05-03 21:11 46.60261 -117.67611 32203 ft 423 kts 183°
2026-05-03 21:11 46.57315 -117.67850 32533 ft 425 kts 183°
2026-05-03 21:11 46.54349 -117.68090 32841 ft 428 kts 183°
2026-05-03 21:11 46.51374 -117.68332 33154 ft 430 kts 183°
2026-05-03 21:12 46.48376 -117.68572 33461 ft 433 kts 183°
2026-05-03 21:12 46.45358 -117.68812 33741 ft 435 kts 183°
2026-05-03 21:12 46.42325 -117.69053 34025 ft 437 kts 183°
2026-05-03 21:12 46.39282 -117.69296 34287 ft 439 kts 183°
2026-05-03 21:13 46.36226 -117.69538 34524 ft 441 kts 183°
2026-05-03 21:13 46.33158 -117.69780 34764 ft 442 kts 183°
2026-05-03 21:13 46.30088 -117.70021 35070 ft 442 kts 183°
2026-05-03 21:13 46.26984 -117.70262 35071 ft 450 kts 182°
2026-05-03 21:14 46.20627 -117.70740 35061 ft 464 kts 182°
2026-05-03 21:14 46.17388 -117.70981 34951 ft 468 kts 182°
2026-05-03 21:14 46.14135 -117.71223 34965 ft 468 kts 182°
2026-05-03 21:15 46.07613 -117.71712 34964 ft 470 kts 182°
2026-05-03 21:15 46.01138 -117.72193 34947 ft 467 kts 182°
2026-05-03 21:16 45.94644 -117.72682 34962 ft 468 kts 182°
2026-05-03 21:16 45.88141 -117.73170 34961 ft 468 kts 182°
2026-05-03 21:17 45.82732 -117.73580 34968 ft 468 kts 182°
2026-05-03 21:17 45.75150 -117.74138 34960 ft 466 kts 182°
2026-05-03 21:18 45.68673 -117.74616 34967 ft 466 kts 182°
2026-05-03 21:18 45.62195 -117.75092 34969 ft 466 kts 182°
2026-05-03 21:19 45.55713 -117.75573 34982 ft 467 kts 182°
2026-05-03 21:19 45.49227 -117.76051 34979 ft 466 kts 182°
2026-05-03 21:20 45.42746 -117.76527 34978 ft 466 kts 181°
2026-05-03 21:20 45.36269 -117.77000 34988 ft 467 kts 182°
2026-05-03 21:21 45.29786 -117.77470 34985 ft 466 kts 181°
2026-05-03 21:21 45.23308 -117.77946 34990 ft 466 kts 182°
2026-05-03 21:22 45.16826 -117.78418 34986 ft 466 kts 181°
2026-05-03 21:22 45.10351 -117.78888 34990 ft 465 kts 182°
2026-05-03 21:23 45.03927 -117.79354 34982 ft 465 kts 182°
2026-05-03 21:23 44.97460 -117.79821 35000 ft 465 kts 181°
2026-05-03 21:24 44.91005 -117.80287 34995 ft 463 kts 181°
2026-05-03 21:24 44.84584 -117.80758 35013 ft 462 kts 183°
2026-05-03 21:25 44.78222 -117.82220 35015 ft 464 kts 189°
2026-05-03 21:25 44.71877 -117.83884 35004 ft 464 kts 189°
2026-05-03 21:26 44.65540 -117.85523 34995 ft 463 kts 189°
2026-05-03 21:26 44.59201 -117.87155 34975 ft 462 kts 190°
2026-05-03 21:27 44.52896 -117.88775 34980 ft 460 kts 189°
2026-05-03 21:27 44.46599 -117.90379 34987 ft 460 kts 191°
2026-05-03 21:28 44.40311 -117.91988 34952 ft 460 kts 191°
2026-05-03 21:28 44.34007 -117.93593 34961 ft 461 kts 191°
2026-05-03 21:29 44.27709 -117.95192 34954 ft 458 kts 191°
2026-05-03 21:29 44.22516 -117.96507 34952 ft 454 kts 192°
2026-05-03 21:30 44.16299 -117.98077 34949 ft 454 kts 191°
2026-05-03 21:30 44.10072 -117.99648 34949 ft 455 kts 192°
2026-05-03 21:31 44.03844 -118.01220 34949 ft 455 kts 192°
2026-05-03 21:31 43.97622 -118.02781 34946 ft 454 kts 191°
2026-05-03 21:32 43.91407 -118.04341 34948 ft 454 kts 192°
2026-05-03 21:32 43.85188 -118.05895 34941 ft 454 kts 191°
2026-05-03 21:33 43.78968 -118.07454 34933 ft 454 kts 191°
2026-05-03 21:33 43.72745 -118.08999 34921 ft 454 kts 192°
2026-05-03 21:34 43.66531 -118.10551 34938 ft 454 kts 191°
2026-05-03 21:34 43.60301 -118.12089 34938 ft 454 kts 191°
2026-05-03 21:35 43.54074 -118.13637 34934 ft 455 kts 191°
2026-05-03 21:35 43.47846 -118.15171 34936 ft 455 kts 191°
2026-05-03 21:36 43.41615 -118.16712 34917 ft 455 kts 191°
2026-05-03 21:36 43.35389 -118.18239 34931 ft 454 kts 191°
2026-05-03 21:37 43.29231 -118.19756 34934 ft 452 kts 191°
2026-05-03 21:37 43.23031 -118.21274 34934 ft 453 kts 191°
2026-05-03 21:38 43.16828 -118.22794 34932 ft 453 kts 191°
2026-05-03 21:38 43.10622 -118.24306 34929 ft 453 kts 191°
2026-05-03 21:39 43.04415 -118.25817 34922 ft 452 kts 190°
2026-05-03 21:39 42.98225 -118.27322 34929 ft 452 kts 190°
2026-05-03 21:40 42.92041 -118.28822 34925 ft 450 kts 190°
2026-05-03 21:40 42.85896 -118.30311 34925 ft 449 kts 190°
2026-05-03 21:41 42.79744 -118.31796 34915 ft 449 kts 190°
2026-05-03 21:41 42.73596 -118.33278 34912 ft 449 kts 190°
2026-05-03 21:42 42.67453 -118.34757 34923 ft 448 kts 190°
2026-05-03 21:42 42.61315 -118.36231 34907 ft 448 kts 190°
2026-05-03 21:43 42.55222 -118.37691 34914 ft 448 kts 190°
2026-05-03 21:43 42.49082 -118.39160 34902 ft 447 kts 190°
2026-05-03 21:44 42.42964 -118.40620 34906 ft 447 kts 189°
2026-05-03 21:44 42.36839 -118.42077 34902 ft 446 kts 189°
2026-05-03 21:45 42.30721 -118.43533 34897 ft 446 kts 189°
2026-05-03 21:45 42.24624 -118.44979 34885 ft 443 kts 189°
2026-05-03 21:46 42.18552 -118.46418 34892 ft 442 kts 189°
2026-05-03 21:46 42.12486 -118.47853 34888 ft 443 kts 189°
2026-05-03 21:47 42.06428 -118.49282 34879 ft 440 kts 188°
2026-05-03 21:47 42.00399 -118.50705 34887 ft 440 kts 189°
2026-05-03 21:48 41.94372 -118.52120 34884 ft 440 kts 188°
2026-05-03 21:48 41.88355 -118.53534 34877 ft 439 kts 189°
2026-05-03 21:49 41.82325 -118.54943 34885 ft 441 kts 188°
2026-05-03 21:49 41.76271 -118.56357 34885 ft 442 kts 188°
2026-05-03 21:50 41.70196 -118.57775 34873 ft 443 kts 188°
2026-05-03 21:50 41.64118 -118.59188 34876 ft 445 kts 188°
2026-05-03 21:51 41.58052 -118.60599 34869 ft 446 kts 188°
2026-05-03 21:51 41.51926 -118.62021 34869 ft 448 kts 188°
2026-05-03 21:52 41.45786 -118.63442 34868 ft 447 kts 188°
2026-05-03 21:52 41.39682 -118.64853 34866 ft 445 kts 188°
2026-05-03 21:53 41.33583 -118.66258 34854 ft 445 kts 188°
2026-05-03 21:53 41.27479 -118.67662 34869 ft 445 kts 188°
2026-05-03 21:54 41.21408 -118.69059 34851 ft 441 kts 188°
2026-05-03 21:54 41.15356 -118.70444 34860 ft 442 kts 188°
2026-05-03 21:55 41.09303 -118.71831 34851 ft 442 kts 188°
2026-05-03 21:55 41.03247 -118.73214 34852 ft 442 kts 188°
2026-05-03 21:56 40.97191 -118.74593 34850 ft 442 kts 187°
2026-05-03 21:56 40.91130 -118.75973 34848 ft 441 kts 188°
2026-05-03 21:57 40.85080 -118.77347 34852 ft 441 kts 187°
2026-05-03 21:57 40.79030 -118.78721 34846 ft 441 kts 187°
2026-05-03 21:58 40.72977 -118.80092 34846 ft 442 kts 187°
2026-05-03 21:58 40.66930 -118.81459 34847 ft 441 kts 187°
2026-05-03 21:59 40.60879 -118.82825 34842 ft 441 kts 187°
2026-05-03 21:59 40.54822 -118.84185 34846 ft 441 kts 187°
2026-05-03 22:00 40.48772 -118.85541 34841 ft 441 kts 187°
2026-05-03 22:00 40.42710 -118.86900 34831 ft 443 kts 187°
2026-05-03 22:01 40.36592 -118.88269 34836 ft 448 kts 187°
2026-05-03 22:01 40.30436 -118.89645 34828 ft 449 kts 187°
2026-05-03 22:02 40.24278 -118.91021 34816 ft 449 kts 187°
2026-05-03 22:02 40.18088 -118.92395 34810 ft 453 kts 187°
2026-05-03 22:03 40.11878 -118.93776 34808 ft 453 kts 187°
2026-05-03 22:03 40.05664 -118.95154 34823 ft 453 kts 187°
2026-05-03 22:04 39.99458 -118.96532 34811 ft 451 kts 187°
2026-05-03 22:04 39.93273 -118.97901 34794 ft 451 kts 187°
2026-05-03 22:05 39.87080 -118.99266 34794 ft 451 kts 187°
2026-05-03 22:05 39.80932 -119.00616 34794 ft 449 kts 187°
2026-05-03 22:06 39.74826 -119.01957 34789 ft 444 kts 187°
2026-05-03 22:06 39.68718 -119.03292 34787 ft 446 kts 187°
2026-05-03 22:07 39.62600 -119.04633 34791 ft 446 kts 187°
2026-05-03 22:07 39.56511 -119.05966 34806 ft 442 kts 188°
2026-05-03 22:08 39.50442 -119.07291 34793 ft 443 kts 187°
2026-05-03 22:08 39.44361 -119.08618 34798 ft 443 kts 188°
2026-05-03 22:09 39.38294 -119.09935 34787 ft 439 kts 188°
2026-05-03 22:10 39.29348 -119.11881 34786 ft 434 kts 189°
2026-05-03 22:10 39.23381 -119.13168 34801 ft 436 kts 188°
2026-05-03 22:11 39.17413 -119.14457 34800 ft 434 kts 190°
2026-05-03 22:11 39.11460 -119.15747 34783 ft 433 kts 190°
2026-05-03 22:12 39.05515 -119.17029 34800 ft 434 kts 190°
2026-05-03 22:12 38.99570 -119.18300 34785 ft 433 kts 190°
2026-05-03 22:13 38.93634 -119.19578 34789 ft 432 kts 189°
2026-05-03 22:13 38.87690 -119.20852 34820 ft 434 kts 190°
2026-05-03 22:14 38.81739 -119.22120 34816 ft 434 kts 190°
2026-05-03 22:14 38.75787 -119.23393 34829 ft 432 kts 190°
2026-05-03 22:15 38.69874 -119.24657 34839 ft 435 kts 191°
2026-05-03 22:15 38.63921 -119.25923 34865 ft 433 kts 191°
2026-05-03 22:16 38.57972 -119.27182 34870 ft 433 kts 191°
2026-05-03 22:16 38.52002 -119.28457 34866 ft 438 kts 190°
2026-05-03 22:17 38.45892 -119.29750 34907 ft 450 kts 189°
2026-05-03 22:17 38.39687 -119.31063 34910 ft 452 kts 189°
2026-05-03 22:18 38.33471 -119.32381 34916 ft 453 kts 189°
2026-05-03 22:18 38.28347 -119.33461 34930 ft 445 kts 189°
2026-05-03 22:19 38.22254 -119.34744 34914 ft 442 kts 189°
2026-05-03 22:19 38.16166 -119.36028 34932 ft 445 kts 189°
2026-05-03 22:20 38.10069 -119.37296 34965 ft 443 kts 190°
2026-05-03 22:20 38.07075 -119.37917 34948 ft 431 kts 189°
2026-05-03 22:20 38.04118 -119.38531 34964 ft 430 kts 189°
2026-05-03 22:21 37.98197 -119.39766 34967 ft 432 kts 190°
2026-05-03 22:21 37.92286 -119.41004 34966 ft 431 kts 190°
2026-05-03 22:22 37.86372 -119.42243 34951 ft 430 kts 191°
2026-05-03 22:22 37.80462 -119.43473 34957 ft 431 kts 191°
2026-05-03 22:23 37.74536 -119.44703 34963 ft 432 kts 191°
2026-05-03 22:23 37.68603 -119.45929 34956 ft 432 kts 191°
2026-05-03 22:24 37.62674 -119.47161 34953 ft 432 kts 192°
2026-05-03 22:24 37.56745 -119.48385 34949 ft 432 kts 192°
2026-05-03 22:25 37.50814 -119.49613 34953 ft 432 kts 192°
2026-05-03 22:25 37.44887 -119.50844 34955 ft 432 kts 192°
2026-05-03 22:26 37.38996 -119.52060 34950 ft 427 kts 194°
2026-05-03 22:26 37.33116 -119.53268 34944 ft 428 kts 193°
2026-05-03 22:27 37.27237 -119.54468 34941 ft 429 kts 193°
2026-05-03 22:27 37.21362 -119.55658 34932 ft 429 kts 194°
2026-05-03 22:28 37.15495 -119.56846 34938 ft 427 kts 194°
2026-05-03 22:28 37.09605 -119.57874 34953 ft 432 kts 188°
2026-05-03 22:29 37.03577 -119.58099 34918 ft 433 kts 187°
2026-05-03 22:29 36.97572 -119.58303 34939 ft 430 kts 189°
2026-05-03 22:30 36.91593 -119.58504 34936 ft 430 kts 189°
2026-05-03 22:30 36.85616 -119.58708 34933 ft 430 kts 189°
2026-05-03 22:31 36.79634 -119.58912 34932 ft 430 kts 189°
2026-05-03 22:31 36.73655 -119.59115 34935 ft 430 kts 189°
2026-05-03 22:32 36.67676 -119.59318 34933 ft 430 kts 189°
2026-05-03 22:32 36.61695 -119.59521 34932 ft 430 kts 189°
2026-05-03 22:33 36.55719 -119.59722 34927 ft 426 kts 191°
2026-05-03 22:33 36.49844 -119.59919 34929 ft 425 kts 191°
2026-05-03 22:34 36.43929 -119.60121 34927 ft 425 kts 191°
2026-05-03 22:34 36.38010 -119.60322 34926 ft 426 kts 191°
2026-05-03 22:35 36.32119 -119.60514 34922 ft 420 kts 192°
2026-05-03 22:35 36.26279 -119.60715 34931 ft 420 kts 192°
2026-05-03 22:36 36.20434 -119.60912 34924 ft 420 kts 192°
2026-05-03 22:36 36.14590 -119.61108 34926 ft 420 kts 192°
2026-05-03 22:37 36.08800 -119.61298 34924 ft 414 kts 193°
2026-05-03 22:37 36.03031 -119.61493 34922 ft 415 kts 193°
2026-05-03 22:38 35.97356 -119.62052 34915 ft 395 kts 206°
2026-05-03 22:38 35.92094 -119.63952 34920 ft 394 kts 207°
2026-05-03 22:39 35.86880 -119.65848 34919 ft 390 kts 207°
2026-05-03 22:39 35.81673 -119.67758 34920 ft 390 kts 207°
2026-05-03 22:40 35.76471 -119.69670 34920 ft 390 kts 207°
2026-05-03 22:40 35.71270 -119.71583 34930 ft 390 kts 207°
2026-05-03 22:41 35.66029 -119.73376 34961 ft 394 kts 203°
2026-05-03 22:41 35.60633 -119.74710 34930 ft 395 kts 203°
2026-05-03 22:42 35.55267 -119.76031 34937 ft 396 kts 203°
2026-05-03 22:42 35.49865 -119.77346 34940 ft 396 kts 203°
2026-05-03 22:43 35.44459 -119.78657 34938 ft 396 kts 203°
2026-05-03 22:43 35.39041 -119.79974 34935 ft 398 kts 203°
2026-05-03 22:44 35.33622 -119.81283 34946 ft 398 kts 202°
2026-05-03 22:44 35.30779 -119.81455 34971 ft 423 kts 188°
2026-05-03 22:44 35.27823 -119.80637 34985 ft 452 kts 173°
2026-05-03 22:44 35.24977 -119.78738 35007 ft 479 kts 158°
2026-05-03 22:45 35.22271 -119.76297 34870 ft 487 kts 155°
2026-05-03 22:45 35.16941 -119.71275 34814 ft 482 kts 155°
2026-05-03 22:45 35.14274 -119.68797 34394 ft 480 kts 156°
2026-05-03 22:46 35.11611 -119.66341 33767 ft 482 kts 156°
2026-05-03 22:46 35.08931 -119.63888 33123 ft 480 kts 156°
2026-05-03 22:46 35.06285 -119.61396 32450 ft 480 kts 155°
2026-05-03 22:46 35.03671 -119.58901 31792 ft 473 kts 155°
2026-05-03 22:47 35.01092 -119.56459 31179 ft 466 kts 156°
2026-05-03 22:47 34.98536 -119.54065 30577 ft 460 kts 156°
2026-05-03 22:47 34.96001 -119.51720 29957 ft 456 kts 157°
2026-05-03 22:47 34.93490 -119.49395 29371 ft 449 kts 156°
2026-05-03 22:48 34.91012 -119.47119 28867 ft 443 kts 156°
2026-05-03 22:48 34.88552 -119.44907 28369 ft 438 kts 156°
2026-05-03 22:48 34.86101 -119.42733 28003 ft 434 kts 157°
2026-05-03 22:48 34.83652 -119.40567 27669 ft 437 kts 156°
2026-05-03 22:49 34.81204 -119.38387 27240 ft 434 kts 156°
2026-05-03 22:49 34.78814 -119.36245 26851 ft 431 kts 156°
2026-05-03 22:49 34.76411 -119.34097 26460 ft 426 kts 156°
2026-05-03 22:49 34.74015 -119.31973 25952 ft 425 kts 156°
2026-05-03 22:50 34.71634 -119.29888 25474 ft 420 kts 156°
2026-05-03 22:50 34.69271 -119.27829 24879 ft 416 kts 156°
2026-05-03 22:50 34.66936 -119.25808 24324 ft 407 kts 157°
2026-05-03 22:50 34.64640 -119.23857 23889 ft 401 kts 156°
2026-05-03 22:51 34.62377 -119.21873 23325 ft 402 kts 155°
2026-05-03 22:51 34.60127 -119.19925 22900 ft 392 kts 156°
2026-05-03 22:51 34.57887 -119.18030 22429 ft 393 kts 155°
2026-05-03 22:51 34.55672 -119.16099 21960 ft 390 kts 154°
2026-05-03 22:52 34.53492 -119.14154 21516 ft 387 kts 152°
2026-05-03 22:52 34.51346 -119.12187 20930 ft 385 kts 152°
2026-05-03 22:52 34.49205 -119.10297 20472 ft 379 kts 152°
2026-05-03 22:52 34.47091 -119.08405 19939 ft 376 kts 151°
2026-05-03 22:53 34.44985 -119.06555 19474 ft 371 kts 151°
2026-05-03 22:53 34.42908 -119.04732 18992 ft 367 kts 150°
2026-05-03 22:53 34.40843 -119.02940 18490 ft 363 kts 150°
2026-05-03 22:53 34.38797 -119.01189 18010 ft 358 kts 149°
2026-05-03 22:54 34.36784 -118.99456 17549 ft 353 kts 149°
2026-05-03 22:54 34.34792 -118.97740 17114 ft 350 kts 149°
2026-05-03 22:54 34.32825 -118.96018 16696 ft 349 kts 148°
2026-05-03 22:54 34.30892 -118.94249 16247 ft 347 kts 148°
2026-05-03 22:55 34.28974 -118.92494 15864 ft 345 kts 148°
2026-05-03 22:55 34.27061 -118.90759 15430 ft 343 kts 148°
2026-05-03 22:55 34.25166 -118.89036 14999 ft 339 kts 147°
2026-05-03 22:55 34.23294 -118.87320 14565 ft 336 kts 147°
2026-05-03 22:56 34.21458 -118.85626 14118 ft 328 kts 147°
2026-05-03 22:56 34.19661 -118.83972 13671 ft 321 kts 147°
2026-05-03 22:56 34.17903 -118.82358 13268 ft 313 kts 147°
2026-05-03 22:56 34.16203 -118.80789 12955 ft 303 kts 146°
2026-05-03 22:57 34.14632 -118.79141 12659 ft 296 kts 141°
2026-05-03 22:57 34.13136 -118.77469 12392 ft 291 kts 141°
2026-05-03 22:57 34.11641 -118.75823 12184 ft 292 kts 142°
2026-05-03 22:57 34.10131 -118.74169 11973 ft 294 kts 142°
2026-05-03 22:58 34.08614 -118.72513 11680 ft 293 kts 142°
2026-05-03 22:58 34.07129 -118.70891 11457 ft 291 kts 142°
2026-05-03 22:58 34.05625 -118.69263 11231 ft 289 kts 142°
2026-05-03 22:58 34.04144 -118.67640 10942 ft 287 kts 140°
2026-05-03 22:59 34.03011 -118.65650 10588 ft 295 kts 109°
2026-05-03 22:59 34.02889 -118.63172 10337 ft 297 kts 96°
2026-05-03 22:59 34.02625 -118.60695 9900 ft 299 kts 101°
2026-05-03 22:59 34.02322 -118.58205 9415 ft 301 kts 101°
2026-05-03 23:00 34.02036 -118.55690 9001 ft 296 kts 101°
2026-05-03 23:00 34.01776 -118.53286 8653 ft 290 kts 100°
2026-05-03 23:00 34.01537 -118.50893 8303 ft 285 kts 100°
2026-05-03 23:00 34.01306 -118.48577 7937 ft 271 kts 100°
2026-05-03 23:01 34.01091 -118.46374 7616 ft 258 kts 100°
2026-05-03 23:01 34.01022 -118.44259 7289 ft 251 kts 84°
2026-05-03 23:01 34.01441 -118.42256 7012 ft 243 kts 77°
2026-05-03 23:01 34.01862 -118.40297 6701 ft 239 kts 80°
2026-05-03 23:02 34.02250 -118.38330 6535 ft 245 kts 79°
2026-05-03 23:02 34.02641 -118.36325 6318 ft 248 kts 84°
2026-05-03 23:02 34.02932 -118.34291 6127 ft 247 kts 84°
2026-05-03 23:02 34.03159 -118.32257 5934 ft 237 kts 89°
2026-05-03 23:03 34.03305 -118.30288 5465 ft 236 kts 86°
2026-05-03 23:03 34.03497 -118.28324 4977 ft 237 kts 86°
2026-05-03 23:03 34.03712 -118.26329 4521 ft 243 kts 85°
2026-05-03 23:03 34.03938 -118.24255 3708 ft 259 kts 84°
2026-05-03 23:04 34.03863 -118.22082 2976 ft 256 kts 111°
2026-05-03 23:04 34.02943 -118.20368 2517 ft 239 kts 144°
2026-05-03 23:04 34.01513 -118.19654 2185 ft 218 kts 179°
2026-05-03 23:04 34.00184 -118.20087 2233 ft 182 kts 215°
2026-05-03 23:05 33.99274 -118.21114 2349 ft 184 kts 231°
2026-05-03 23:05 33.98494 -118.22313 2287 ft 178 kts 231°
2026-05-03 23:05 33.97739 -118.23481 2374 ft 183 kts 231°
2026-05-03 23:05 33.96959 -118.24703 2253 ft 181 kts 233°
2026-05-03 23:06 33.96573 -118.26116 2299 ft 180 kts 263°
2026-05-03 23:06 33.96520 -118.27607 2261 ft 170 kts 262°
2026-05-03 23:06 33.96349 -118.29033 2010 ft 170 kts 257°
2026-05-03 23:06 33.96193 -118.30366 1786 ft 154 kts 261°
2026-05-03 23:07 33.96084 -118.31604 1582 ft 145 kts 261°
2026-05-03 23:07 33.96002 -118.32401 1457 ft 141 kts 260°
2026-05-03 23:07 33.95879 -118.33565 1289 ft 141 kts 261°
2026-05-03 23:07 33.95765 -118.34719 1071 ft 136 kts 260°
2026-05-03 23:08 33.95649 -118.35851 918 ft 135 kts 264°
2026-05-03 23:08 33.95546 -118.36975 700 ft 135 kts 262°
2026-05-03 23:08 33.95432 -118.38021 588 ft 122 kts 265°
2026-05-03 23:08 33.95354 -118.39059 359 ft 126 kts 261°
2026-05-03 23:09 33.95230 -118.40056 154 ft 114 kts 262°
2026-05-03 23:09 33.95136 -118.40917 90 ft 91 kts 263°
2026-05-03 23:09 33.95078 -118.41494 92 ft 50 kts 263°
2026-05-03 23:09 33.95046 -118.41805 93 ft 28 kts 263°
2026-05-03 23:10 33.95018 -118.42015 93 ft 23 kts 254°
2026-05-03 23:10 33.94954 -118.42176 93 ft 12 kts 231°
2026-05-03 23:10 33.94889 -118.42253 93 ft 14 kts 215°
2026-05-03 23:10 33.94780 -118.42283 94 ft 19 kts 177°
2026-05-03 23:11 33.94687 -118.42206 91 ft 20 kts 88°
2026-05-03 23:11 33.94703 -118.42025 92 ft 23 kts 82°
2026-05-03 23:11 33.94725 -118.41814 91 ft 27 kts 83°
2026-05-03 23:11 33.94748 -118.41583 95 ft 30 kts 83°
2026-05-03 23:12 33.94779 -118.41383 93 ft 18 kts 74°
2026-05-03 23:12 33.94799 -118.41220 92 ft 21 kts 83°
2026-05-03 23:12 33.94820 -118.41039 95 ft 18 kts 83°
2026-05-03 23:12 33.94834 -118.40875 94 ft 22 kts 84°
2026-05-03 23:13 33.94854 -118.40681 92 ft 22 kts 82°
2026-05-03 23:13 33.94827 -118.40599 91 ft 10 kts 154°
2026-05-03 23:13 33.94778 -118.40582 91 ft 0 kts 164°
2026-05-03 23:13 33.94764 -118.40577 91 ft 7 kts 170°
2026-05-03 23:14 33.94714 -118.40548 91 ft 8 kts 124°
2026-05-03 23:14 33.94701 -118.40514 91 ft 3 kts 111°
2026-05-03 23:14 33.94697 -118.40502 92 ft 1 kts 112°
2026-05-03 23:14 33.94696 -118.40498 92 ft 0 kts 111°
2026-05-03 23:15 33.94695 -118.40495 92 ft 0 kts 112°